Wetbulb
64.29 67.15 68.08 67.99 67.89 67.65 67.89 68.73 69.33 69.75 69.69 70.22 70.42 70.39 70.01 69.76 70.03 70.69 71.19 71.66 70.64 70.52 70.55 70.34 70.15 70.18 69.96 69.94 69.77 69.72 69.18 69.54 70.05 69.71 70.33 70.89 71.08 70.82 70.77 70.53 70.65 69.23 69.42
65.82 68.22 68.57 67.98 67.16 66.89 67.26 68.16 69.09 68.91 69.18 69.30 69.69 69.25 69.30 69.38 69.13 69.64 70.11 70.67 70.86 70.28 70.26 70.13 70.06 69.88 69.86 69.43 68.82 69.32 69.24 68.21 69.47 68.91 69.20 70.11 70.23 70.01 69.64 69.62 70.42 70.04 69.57
67.56 69.52 68.41 67.54 67.47 67.22 67.23 67.38 68.48 68.80 68.82 68.87 68.89 69.45 70.01 69.86 69.57 69.42 69.54 69.65 69.84 70.00 69.79 69.53 69.36 69.19 68.66 68.23 68.11 68.71 68.89 68.52 68.89 69.79 70.31 70.80 69.02 68.94 68.71 68.74 68.74 69.03 69.21
67.91 68.02 66.22 65.31 65.60 66.30 66.63 67.06 67.09 68.20 68.31 68.86 69.33 69.95 69.66 69.36 69.40 68.91 69.29 69.17 69.52 69.69 69.88 69.91 69.27 68.74 68.18 67.94 68.08 67.86 68.55 68.69 69.50 70.12 70.47 68.47 69.17 69.20 68.83 68.49 68.45 68.25 67.59
67.70 67.31 64.97 64.56 64.47 64.62 65.48 65.92 66.34 67.21 68.95 69.05 69.27 69.34 68.59 68.02 67.77 67.60 67.29 67.54 67.87 68.28 68.62 68.94 69.29 69.10 68.65 68.37 68.33 68.31 67.76 68.03 69.30 69.81 68.98 68.08 69.46 69.25 69.27 68.99 69.03 68.45 68.60
67.06 66.48 63.98 63.98 63.19 63.22 64.04 64.79 65.14 66.31 67.78 66.85 66.40 66.58 66.54 66.02 65.59 65.58 65.19 65.44 65.71 66.02 66.93 67.56 67.97 67.83 67.35 67.06 67.24 67.27 67.34 67.85 67.44 69.82 68.79 69.01 69.96 69.54 69.40 67.99 68.71 68.98 68.87
66.86 66.29 63.31 62.51 61.72 62.31 63.03 63.26 63.78 65.04 64.86 64.71 64.23 63.69 63.54 63.31 63.21 63.25 63.36 63.46 63.91 64.32 64.27 64.50 64.39 64.85 64.48 64.36 65.07 66.06 66.63 66.50 67.35 67.48 67.95 68.72 70.57 69.55 68.76 67.92 67.79 67.55 67.61
66.56 66.68 64.06 61.29 60.76 61.13 61.56 61.55 61.99 62.56 62.68 62.05 61.66 61.37 61.05 60.42 60.46 61.31 61.33 61.65 61.90 62.09 61.90 61.63 61.39 61.55 61.88 62.12 62.32 62.87 63.98 66.19 67.49 68.94 68.00 68.18 69.13 69.59 68.91 68.09 67.49 67.34 67.05
66.17 65.62 64.70 63.73 61.98 60.61 60.00 59.65 59.88 60.14 60.02 59.70 58.86 58.81 58.44 59.08 58.91 59.70 59.64 59.62 59.40 59.42 59.51 59.35 59.17 58.84 59.63 60.37 61.02 61.52 62.14 64.81 67.81 68.20 67.34 69.46 68.30 68.96 68.71 68.23 67.50 67.05 66.67
63.76 63.76 63.34 62.63 61.11 61.04 60.77 58.49 58.68 58.84 58.68 58.54 57.84 58.14 57.87 60.60 60.45 58.82 59.52 56.85 56.93 56.59 56.66 57.30 57.86 58.72 60.37 61.39 60.75 61.14 62.17 63.39 67.92 68.37 67.33 67.34 67.96 67.77 68.59 68.77 68.11 67.16 66.69
61.02 61.45 61.77 60.66 59.54 59.40 59.87 59.43 58.96 58.31 58.51 59.06 59.06 58.39 60.35 56.01 55.75 55.54 54.88 56.91 57.17 55.78 55.81 56.29 59.32 60.26 61.01 62.27 61.34 61.30 62.79 65.85 66.43 67.52 66.11 65.67 67.99 68.33 68.87 69.38 68.79 68.05 67.43
58.29 59.22 60.32 59.73 58.40 57.86 57.63 60.00 59.91 58.66 58.29 58.23 57.19 57.27 56.40 57.07 55.71 55.64 56.87 56.27 59.70 60.74 57.51 56.33 59.97 61.71 62.16 59.87 60.42 64.20 63.25 64.41 65.66 67.03 62.68 62.39 66.33 69.18 68.91 69.50 69.22 68.93 67.91
57.71 58.26 58.69 58.27 58.35 57.48 57.69 58.13 57.46 57.00 56.78 57.01 57.62 57.60 58.18 57.36 57.79 57.03 56.93 56.92 57.59 59.56 56.84 59.00 59.01 59.25 60.57 60.43 59.94 60.80 61.31 62.28 65.49 65.75 57.92 58.97 62.20 65.42 67.97 68.98 68.87 68.83 68.96
57.10 57.57 57.79 57.53 57.78 57.64 56.47 56.14 56.08 55.79 56.23 56.71 57.74 58.67 58.37 57.45 57.99 58.09 57.57 57.73 57.96 57.51 57.43 57.15 57.67 59.12 59.67 60.04 59.82 59.70 59.84 59.96 60.70 63.64 56.51 57.56 59.25 62.72 65.57 67.18 67.20 68.05 67.96
56.44 57.26 57.33 57.58 58.06 57.02 56.70 56.27 56.49 56.45 56.90 57.92 58.35 59.31 58.90 58.26 58.17 57.96 57.92 57.64 57.82 58.12 57.80 57.50 57.02 57.20 58.17 58.86 59.36 58.76 58.82 59.15 59.62 59.56 59.37 57.14 57.97 61.06 63.34 65.47 66.16 66.18 66.28
56.60 57.28 57.75 57.57 58.07 57.21 56.69 57.39 56.89 57.48 57.92 58.08 58.46 58.92 59.48 58.88 58.55 57.71 57.61 57.38 57.61 57.78 57.90 57.82 57.24 56.89 56.34 57.30 57.88 58.53 58.67 58.80 59.02 59.40 59.29 58.55 57.19 59.81 60.87 61.18 61.84 63.21 63.64
56.81 57.31 57.38 57.80 58.19 57.40 57.29 57.07 57.21 57.11 57.64 57.84 58.29 59.30 59.12 59.22 59.18 58.75 57.69 57.57 57.87 58.16 58.63 57.92 57.58 57.41 56.74 56.38 55.83 56.92 57.38 58.19 57.92 58.08 58.19 58.47 58.25 58.54 59.85 59.66 58.43 59.61 60.69
57.00 56.84 57.64 56.72 58.00 57.96 57.52 57.42 57.27 57.65 57.82 57.89 58.12 58.58 58.78 58.74 59.22 58.81 57.74 57.68 58.47 57.87 57.43 56.50 56.14 55.96 56.13 55.86 54.86 55.14 55.59 56.98 57.74 57.51 57.37 57.64 57.65 57.17 58.60 59.41 57.50 56.91 57.55
57.22 57.37 57.27 57.63 57.78 57.82 58.09 57.98 58.30 58.60 58.10 58.23 58.64 58.20 58.83 58.65 58.90 58.73 57.88 57.84 58.23 56.47 55.90 55.25 54.79 55.33 54.51 54.73 54.09 54.45 55.69 55.16 56.05 56.83 56.91 57.35 57.27 56.97 56.66 58.09 57.72 57.07 56.84
57.39 57.99 58.21 57.93 58.14 58.37 57.91 57.94 57.68 57.54 57.79 58.81 58.39 58.61 59.03 58.88 58.95 58.94 57.71 57.06 56.17 55.17 54.11 54.16 53.40 53.89 53.38 53.43 52.97 53.20 54.58 55.34 55.93 55.95 56.24 55.75 56.87 56.99 56.88 56.63 56.50 56.88 56.90
57.18 57.17 57.37 56.74 57.91 57.56 56.71 56.07 55.87 55.65 56.77 57.65 58.11 58.61 58.84 58.98 58.49 58.03 56.42 55.09 53.94 52.96 52.88 52.75 51.76 51.66 50.75 51.80 50.11 50.67 52.47 54.64 55.53 55.04 55.41 54.63 55.22 55.44 55.98 55.60 56.02 55.79 56.38
56.08 56.87 56.43 56.37 57.18 57.34 56.73 56.84 56.56 56.63 57.48 57.93 58.55 58.34 58.34 57.70 57.06 55.21 53.82 52.91 52.39 51.29 51.33 50.83 49.76 48.22 48.83 50.50 46.92 48.23 45.85 49.31 51.67 52.44 53.60 54.30 55.02 53.67 53.41 54.44 55.25 55.19 55.41
55.50 56.33 55.95 56.32 56.78 57.18 57.18 56.78 56.91 57.25 57.23 56.73 57.11 56.75 56.16 55.56 54.19 53.13 52.10 51.81 51.27 50.86 49.67 49.86 49.08 48.11 45.79 47.90 48.92 46.45 42.68 42.54 45.35 50.29 50.88 51.61 52.59 52.12 51.28 52.82 53.35 52.96 54.79
56.03 56.49 56.30 56.45 56.60 57.06 57.47 56.36 55.90 54.69 53.96 56.25 56.76 56.33 54.61 53.72 52.36 51.50 51.22 50.63 50.48 50.04 49.67 49.28 48.94 48.30 46.99 44.68 46.48 46.63 47.06 45.74 41.99 40.93 46.95 49.63 49.09 48.75 50.70 48.97 50.59 49.84 52.30
56.81 56.39 56.60 56.72 56.46 56.87 57.18 57.40 55.96 55.49 55.81 57.50 56.25 54.72 53.95 52.97 51.34 49.98 50.21 50.38 49.95 49.63 49.13 48.24 47.95 47.52 46.99 45.38 44.81 44.60 44.54 44.58 45.11 41.93 38.99 42.39 45.28 46.08 46.54 46.96 47.59 47.62 51.82
58.40 57.31 56.91 56.30 56.12 57.04 57.24 57.34 56.85 56.21 55.90 55.97 55.26 54.23 53.50 52.91 51.52 50.51 49.73 49.86 49.54 48.74 47.75 47.11 46.96 46.83 46.40 46.16 45.34 44.39 42.86 41.34 40.74 40.53 39.28 39.76 40.18 42.94 44.60 45.17 46.47 46.85 47.47
MSLP
1020.11 1020.96 1022.09 1022.04 1021.96 1021.84 1021.68 1021.50 1021.30 1021.11 1020.93 1020.72 1020.53 1020.47 1020.39 1020.20 1020.03 1019.85 1019.56 1019.35 1019.24 1019.17 1019.06 1018.88 1018.77 1018.67 1018.60 1018.54 1018.40 1018.23 1018.05 1017.98 1017.91 1017.80 1017.73 1017.64 1017.65 1017.69 1017.68 1017.64 1017.42 1017.02 1017.83
1020.45 1020.98 1022.22 1022.27 1022.11 1022.07 1021.96 1021.78 1021.58 1021.35 1021.17 1021.07 1020.92 1020.87 1020.65 1020.56 1020.41 1020.18 1020.03 1019.83 1019.56 1019.40 1019.35 1019.33 1019.15 1018.99 1018.87 1018.81 1018.71 1018.58 1018.44 1018.16 1017.87 1017.69 1017.62 1017.75 1017.78 1018.00 1017.97 1017.88 1017.67 1017.79 1018.06
1020.42 1021.10 1021.91 1022.58 1022.53 1022.50 1022.37 1022.16 1022.02 1021.74 1021.53 1021.34 1021.26 1021.11 1021.00 1020.87 1020.70 1020.53 1020.33 1020.22 1020.06 1019.81 1019.64 1019.56 1019.44 1019.30 1019.22 1019.13 1019.01 1018.80 1018.55 1018.44 1018.09 1017.54 1017.40 1016.81 1017.14 1018.06 1018.29 1018.30 1018.26 1018.26 1018.26
1021.38 1022.03 1022.53 1022.97 1022.93 1022.78 1022.69 1022.58 1022.38 1022.10 1021.89 1021.70 1021.51 1021.40 1021.32 1021.20 1021.00 1020.83 1020.70 1020.52 1020.34 1020.10 1019.86 1019.74 1019.69 1019.56 1019.36 1019.21 1019.07 1018.90 1018.73 1018.46 1017.95 1017.50 1016.75 1015.71 1016.43 1018.02 1018.15 1018.39 1018.49 1018.57 1018.61
1021.54 1022.19 1023.05 1023.30 1023.23 1023.13 1023.02 1022.91 1022.75 1022.54 1022.20 1022.05 1021.90 1021.75 1021.69 1021.59 1021.44 1021.33 1021.16 1020.95 1020.77 1020.56 1020.32 1020.13 1020.03 1019.87 1019.67 1019.45 1019.23 1019.01 1018.84 1018.48 1017.96 1017.49 1016.44 1016.46 1016.23 1018.01 1018.43 1018.36 1018.45 1018.60 1018.73
1021.77 1022.59 1023.43 1023.53 1023.56 1023.46 1023.35 1023.20 1023.13 1022.94 1022.68 1022.61 1022.57 1022.39 1022.34 1022.19 1021.98 1021.82 1021.67 1021.46 1021.24 1021.02 1020.81 1020.58 1020.36 1020.16 1019.97 1019.77 1019.53 1019.22 1018.95 1018.49 1018.16 1016.73 1015.48 1016.68 1016.92 1018.00 1018.53 1018.81 1018.74 1018.58 1018.63
1021.94 1022.77 1023.44 1023.77 1023.88 1023.81 1023.73 1023.62 1023.47 1023.31 1023.17 1023.04 1022.99 1022.84 1022.70 1022.53 1022.39 1022.21 1022.06 1021.91 1021.67 1021.42 1021.12 1020.92 1020.71 1020.44 1020.22 1020.00 1019.79 1019.47 1019.12 1018.71 1017.87 1016.20 1015.34 1015.50 1016.45 1017.94 1018.59 1018.79 1018.94 1019.01 1018.94
1022.46 1022.82 1023.24 1023.89 1024.10 1024.13 1024.12 1024.04 1023.93 1023.75 1023.66 1023.56 1023.45 1023.31 1023.13 1022.94 1022.78 1022.60 1022.40 1022.22 1022.00 1021.80 1021.51 1021.21 1021.01 1020.69 1020.42 1020.05 1019.81 1019.57 1019.17 1018.85 1017.77 1016.33 1016.02 1016.66 1017.43 1017.71 1018.45 1018.78 1018.99 1019.07 1019.11
1022.11 1022.65 1023.02 1023.20 1023.90 1024.26 1024.49 1024.49 1024.36 1024.21 1024.02 1023.89 1023.73 1023.48 1023.31 1023.17 1023.05 1022.84 1022.76 1022.53 1022.36 1022.11 1021.83 1021.59 1021.31 1020.90 1020.57 1020.31 1019.99 1019.51 1019.07 1018.62 1018.05 1016.47 1016.09 1017.22 1017.92 1018.05 1018.39 1018.69 1018.89 1019.07 1019.19
1022.23 1022.58 1023.00 1023.22 1023.62 1023.89 1024.18 1024.71 1024.53 1024.33 1024.14 1024.00 1023.77 1023.51 1023.31 1023.02 1022.91 1023.13 1022.77 1022.85 1022.57 1022.26 1022.03 1021.70 1021.34 1021.00 1020.61 1020.22 1019.89 1019.46 1018.98 1018.39 1017.58 1016.43 1017.60 1018.55 1018.43 1018.36 1018.54 1018.66 1018.84 1018.97 1019.11
1022.28 1022.64 1022.93 1023.26 1023.62 1023.74 1023.86 1024.32 1024.30 1024.14 1023.95 1023.89 1023.69 1023.46 1022.92 1022.88 1022.58 1022.60 1023.29 1022.97 1022.59 1022.33 1021.90 1021.61 1021.22 1020.81 1020.21 1019.66 1019.78 1019.20 1018.68 1017.46 1017.30 1016.93 1018.33 1018.88 1018.42 1018.55 1018.59 1018.58 1018.69 1018.78 1018.89
1022.00 1022.58 1022.93 1023.37 1023.64 1023.63 1023.42 1023.82 1023.84 1023.75 1023.97 1023.94 1023.71 1023.49 1023.15 1023.24 1023.03 1022.69 1022.73 1022.68 1022.33 1021.91 1021.65 1021.46 1021.05 1020.53 1020.03 1019.46 1019.09 1018.84 1018.27 1018.40 1017.90 1017.67 1019.13 1019.53 1019.05 1018.77 1018.57 1018.49 1018.52 1018.58 1018.70
1022.21 1022.66 1023.00 1023.86 1024.06 1023.67 1023.97 1023.43 1023.41 1023.76 1023.89 1024.20 1024.26 1023.84 1023.84 1023.39 1023.11 1022.63 1022.30 1022.10 1021.91 1021.89 1021.51 1020.98 1021.02 1020.86 1020.75 1020.47 1020.04 1019.63 1019.24 1018.42 1018.48 1018.70 1020.16 1019.97 1020.03 1019.70 1019.13 1018.73 1018.57 1018.47 1018.47
1022.16 1022.84 1023.25 1023.77 1024.27 1024.30 1023.61 1023.66 1023.93 1024.00 1024.18 1024.33 1024.51 1024.01 1023.93 1023.72 1023.50 1023.19 1022.88 1022.55 1022.23 1022.06 1022.02 1021.67 1021.29 1021.29 1020.96 1020.99 1020.81 1020.32 1019.98 1019.49 1018.96 1018.70 1020.06 1020.30 1020.44 1020.10 1019.65 1019.10 1018.87 1018.69 1018.47
1022.31 1022.97 1023.37 1023.85 1024.28 1024.35 1024.14 1024.37 1024.48 1024.42 1024.53 1024.65 1024.79 1024.80 1024.33 1024.05 1023.95 1023.64 1023.47 1023.08 1022.96 1022.65 1022.44 1022.24 1021.84 1021.42 1021.10 1020.83 1021.03 1020.87 1020.59 1020.24 1019.98 1019.56 1019.63 1020.38 1020.47 1020.26 1020.03 1019.69 1019.37 1019.13 1018.89
1022.34 1023.16 1023.66 1023.98 1024.28 1024.51 1024.68 1024.75 1024.71 1024.74 1024.78 1024.91 1025.13 1025.17 1024.97 1024.74 1024.50 1024.18 1024.02 1023.71 1023.48 1023.38 1022.99 1022.63 1022.36 1021.84 1021.43 1021.13 1020.89 1021.09 1020.79 1020.67 1020.48 1020.34 1019.79 1019.91 1020.31 1020.27 1020.19 1020.21 1020.07 1019.65 1019.33
1022.40 1023.13 1023.65 1024.16 1024.40 1024.68 1024.85 1024.75 1024.84 1024.82 1024.93 1025.08 1025.42 1025.61 1025.44 1025.17 1024.97 1024.46 1024.43 1024.37 1024.05 1023.74 1023.52 1023.04 1022.61 1022.20 1021.71 1021.35 1021.08 1020.71 1020.72 1020.62 1020.63 1020.54 1020.20 1019.97 1019.93 1020.47 1020.20 1020.22 1020.22 1019.94 1019.71
1022.08 1023.09 1023.47 1023.59 1024.40 1024.52 1024.91 1024.73 1024.85 1025.03 1025.02 1025.11 1025.29 1025.63 1025.78 1025.65 1025.48 1024.82 1024.66 1024.93 1024.49 1024.04 1023.88 1023.64 1023.27 1022.74 1022.23 1021.70 1021.46 1020.83 1020.64 1020.52 1020.51 1020.36 1020.25 1020.42 1020.35 1019.98 1020.14 1020.08 1020.26 1020.17 1020.08
1021.99 1022.84 1023.36 1023.88 1024.36 1024.68 1025.03 1024.94 1025.21 1025.55 1025.12 1025.24 1025.30 1025.50 1026.01 1025.83 1025.84 1025.19 1025.20 1025.36 1024.86 1024.58 1024.51 1024.47 1024.09 1023.51 1022.81 1022.31 1021.93 1021.03 1020.68 1020.39 1020.21 1020.18 1020.40 1020.40 1020.11 1020.30 1020.12 1020.15 1020.16 1020.14 1019.91
1021.90 1022.66 1023.25 1023.79 1024.29 1024.67 1025.07 1025.25 1025.03 1025.16 1025.19 1025.19 1025.33 1025.80 1026.12 1025.98 1026.02 1025.71 1025.44 1025.70 1025.38 1025.23 1025.31 1025.38 1025.03 1024.24 1023.35 1022.97 1022.50 1021.62 1020.99 1020.31 1020.49 1020.43 1020.32 1020.23 1019.96 1020.39 1020.06 1020.13 1020.03 1019.60 1019.90
1021.72 1022.44 1022.96 1023.47 1024.02 1024.51 1024.74 1024.67 1024.67 1024.70 1024.96 1025.18 1025.57 1026.08 1026.22 1026.39 1026.24 1026.36 1026.04 1026.13 1026.21 1025.86 1026.11 1026.07 1025.65 1024.90 1024.03 1023.65 1023.19 1022.16 1020.93 1020.01 1020.14 1020.54 1020.44 1020.23 1020.31 1020.57 1020.42 1019.90 1019.85 1019.75 1019.44
1021.16 1022.05 1022.65 1023.05 1023.73 1024.19 1024.21 1024.13 1024.22 1024.44 1024.77 1025.09 1025.75 1026.32 1026.63 1026.82 1026.91 1026.66 1026.95 1026.71 1026.84 1026.46 1026.43 1026.45 1026.15 1025.66 1025.00 1024.35 1023.96 1022.83 1021.83 1020.77 1020.61 1021.09 1020.54 1020.41 1020.43 1020.72 1020.52 1020.14 1020.01 1019.89 1019.75
1020.75 1021.64 1022.18 1022.61 1023.23 1023.79 1023.79 1024.12 1024.47 1024.59 1024.94 1025.35 1025.86 1026.08 1026.97 1027.11 1027.31 1027.27 1027.44 1027.34 1027.29 1026.99 1026.87 1026.73 1026.60 1026.33 1025.61 1024.97 1024.68 1024.12 1023.19 1022.46 1022.26 1021.27 1021.12 1020.73 1020.85 1020.57 1020.86 1020.45 1020.29 1020.31 1019.77
1020.31 1021.24 1021.78 1022.24 1022.75 1023.40 1023.67 1023.70 1024.13 1024.07 1024.19 1024.43 1025.36 1026.16 1026.99 1027.44 1027.57 1027.61 1027.67 1027.74 1027.65 1027.25 1027.26 1027.02 1026.93 1026.91 1026.37 1025.71 1025.22 1024.86 1024.80 1024.38 1023.41 1022.10 1021.72 1021.24 1021.39 1021.09 1021.04 1021.12 1020.79 1020.92 1020.18
1019.87 1020.70 1021.55 1021.94 1022.45 1022.91 1023.45 1023.55 1023.85 1024.08 1024.00 1024.94 1025.79 1026.66 1027.06 1027.44 1027.77 1027.82 1027.81 1027.81 1027.72 1027.45 1027.53 1027.52 1027.39 1027.09 1026.84 1026.62 1026.03 1025.57 1025.15 1024.61 1024.17 1023.57 1022.52 1022.22 1022.01 1021.80 1021.58 1021.35 1021.32 1021.08 1020.16
1019.33 1020.42 1021.20 1021.69 1022.09 1022.62 1023.13 1023.62 1023.64 1023.85 1024.17 1024.89 1025.81 1026.42 1026.75 1027.07 1027.40 1027.88 1027.77 1027.87 1027.81 1027.92 1027.85 1027.73 1027.62 1027.27 1027.22 1027.03 1026.68 1026.31 1025.76 1025.32 1024.85 1024.45 1023.77 1023.23 1022.76 1022.35 1022.09 1021.93 1021.46 1020.95 1020.84
Wind_Speed
9 15 10 10 11 12 12 11 10 11 12 12 12 13 13 13 13 14 14 10 11 11 11 11 11 11 12 13 12 10 7 7 7 6 6 9 10 9 9 11 12 13 9
7 14 13 12 12 12 13 12 12 11 12 11 12 12 12 12 12 13 14 14 13 11 10 10 10 10 11 11 11 11 8 2 1 3 5 9 11 8 9 11 15 10 6
10 15 16 14 13 13 13 13 13 12 11 11 10 11 12 13 12 13 13 13 12 12 11 10 11 12 13 13 13 13 9 3 6 9 10 11 12 7 7 8 8 6 6
13 12 14 14 13 13 13 13 12 13 11 10 8 11 14 14 15 14 15 14 13 13 12 12 12 12 12 12 12 12 11 4 9 13 11 4 12 9 7 4 3 3 3
11 12 13 13 13 14 14 14 13 12 14 13 14 15 16 14 15 15 15 15 14 14 12 12 12 13 12 12 12 11 10 8 12 14 10 8 5 9 5 5 8 5 5
9 11 13 13 14 14 14 14 14 13 14 16 16 15 15 15 16 15 15 14 14 13 13 13 13 13 12 13 12 12 11 13 13 15 2 8 6 11 5 3 5 5 6
8 10 11 13 13 13 13 13 13 12 13 13 13 14 14 15 15 16 16 15 15 15 15 14 13 12 12 13 13 13 12 13 13 14 5 4 14 10 3 2 1 2 2
7 8 9 12 12 13 13 13 13 13 13 13 13 13 14 15 14 16 16 16 16 15 15 15 15 13 12 12 12 11 12 12 13 13 7 10 12 11 4 2 1 1 1
6 7 5 7 10 14 13 12 12 12 13 12 11 9 9 11 13 13 16 15 15 14 14 14 14 14 12 10 10 12 12 12 11 11 5 8 9 7 3 4 3 3 3
7 7 6 6 7 7 9 8 9 9 8 9 8 5 3 7 13 12 11 13 11 12 11 12 12 11 11 10 8 9 12 15 13 12 9 9 12 3 4 4 5 4 5
6 5 6 7 6 5 6 5 7 6 5 7 6 3 1 8 8 11 7 6 7 5 4 5 7 10 14 13 9 8 11 7 10 6 8 17 16 8 7 6 7 7 7
6 5 7 6 5 4 5 4 5 6 8 8 8 9 7 6 6 5 5 5 4 10 7 3 7 10 9 9 5 5 7 8 9 11 10 20 21 14 6 7 6 8 8
7 6 8 7 5 5 4 3 4 5 5 6 9 8 8 7 7 7 6 7 8 10 9 10 11 10 12 10 9 8 9 9 8 6 11 19 17 16 16 13 8 8 9
9 7 7 8 6 5 4 5 5 5 5 6 8 8 6 6 8 8 7 9 8 8 10 10 8 9 10 11 12 11 10 10 8 1 10 15 14 15 15 14 12 12 9
9 8 8 8 6 5 5 6 6 6 6 7 8 9 7 8 7 8 8 9 9 10 10 10 10 9 9 9 9 10 11 10 10 7 6 11 11 14 15 16 16 15 13
10 8 8 8 7 7 7 7 6 6 7 7 7 8 9 8 7 8 9 9 9 9 10 9 9 9 9 9 8 7 7 8 8 8 7 5 10 11 14 15 15 16 16
9 10 9 8 8 8 8 6 5 5 5 6 7 8 8 9 7 7 8 8 8 8 10 9 10 10 9 9 11 7 7 6 7 8 7 8 3 9 11 12 13 14 16
11 11 10 8 9 7 7 5 5 5 4 4 5 6 7 8 8 7 7 8 8 8 9 10 10 10 10 9 10 9 8 7 4 6 6 6 6 8 5 10 8 10 14
12 11 10 9 9 8 7 5 5 4 4 4 3 5 5 7 8 7 8 8 9 9 9 10 11 11 10 10 11 11 9 9 9 7 7 8 4 7 7 4 6 7 13
12 11 10 9 10 8 6 5 5 4 3 3 4 5 4 5 7 7 7 8 9 8 9 10 11 11 10 10 12 12 10 7 6 8 7 7 8 9 8 8 7 4 9
13 12 12 11 11 9 7 6 6 5 4 4 5 4 5 6 7 8 7 8 9 8 9 10 9 12 10 10 10 11 10 9 4 6 7 7 8 8 11 7 6 7 2
14 13 13 12 12 10 7 6 4 4 3 4 4 5 6 6 7 7 7 7 8 7 8 9 10 9 9 9 9 11 9 9 11 12 8 6 3 7 10 12 9 8 7
14 15 14 13 13 11 9 5 4 4 4 5 5 5 5 5 6 6 7 6 7 7 7 9 9 11 9 9 10 8 7 9 12 12 12 10 11 7 8 9 10 12 10
15 14 14 13 13 12 11 9 9 7 6 4 4 5 5 4 5 5 5 6 6 6 7 8 8 8 9 9 9 8 8 11 10 9 10 9 11 11 10 8 9 11 14
16 14 13 14 13 12 11 11 9 9 4 4 4 5 3 3 3 3 4 5 6 6 7 8 8 9 7 8 8 9 9 8 10 10 12 10 10 9 10 10 10 10 11
14 14 14 14 14 13 12 12 9 7 5 5 5 4 3 2 3 2 4 4 5 6 7 7 8 9 9 8 8 9 8 9 9 10 11 12 12 11 10 10 10 8 9
Wind_Direction
39 75 53 47 43 38 35 28 28 28 39 43 48 46 45 43 39 37 41 56 61 52 48 45 37 29 24 20 17 13 20 40 41 44 65 79 69 58 39 20 338 79 59
51 85 64 48 44 39 35 28 29 31 36 46 47 48 50 46 43 40 38 35 46 47 41 32 27 24 20 18 16 10 352 351 114 205 167 125 84 48 27 32 28 73 75
65 48 71 44 39 39 33 30 26 30 37 54 55 52 49 49 49 48 43 37 34 33 28 24 18 14 10 7 6 8 10 302 267 249 212 214 93 86 50 34 43 50 51
80 68 59 53 43 41 36 33 30 31 44 52 57 61 56 49 48 47 42 35 28 25 23 19 13 7 6 2 360 3 7 331 254 261 260 21 110 122 120 102 87 71 52
81 71 70 55 47 42 37 32 32 34 32 56 51 53 50 47 48 46 43 37 31 26 25 22 15 12 7 6 360 353 346 327 289 280 240 20 22 116 126 132 170 148 31
87 76 68 52 45 42 40 39 35 38 46 53 50 50 48 45 43 41 39 38 35 33 30 25 21 16 12 8 4 357 340 316 312 287 321 128 55 109 115 36 49 88 98
82 85 76 62 52 47 44 45 47 52 55 61 61 59 53 48 45 41 37 33 29 26 25 23 20 16 10 6 1 354 346 326 300 300 343 214 111 120 123 116 30 3 63
108 102 105 92 70 58 51 50 51 55 59 57 56 57 54 50 44 44 39 34 29 25 21 16 10 8 1 360 356 347 336 323 301 289 328 81 113 120 150 186 245 256 300
117 107 94 73 108 92 61 55 57 58 61 59 54 55 67 76 58 44 48 37 31 26 22 14 3 355 346 340 340 335 323 304 290 277 274 60 81 104 170 199 207 232 254
106 125 95 65 65 50 85 68 75 73 76 74 60 1 231 145 98 55 36 37 32 26 20 11 357 334 315 300 301 317 307 294 264 281 56 28 20 13 250 225 220 227 238
123 112 69 74 63 101 104 108 143 141 162 161 137 15 20 47 36 71 69 41 35 348 18 351 326 306 295 259 259 286 293 307 336 23 38 11 14 350 274 250 228 227 231
121 112 92 55 77 99 92 107 101 78 59 38 46 26 63 57 52 57 97 179 70 348 232 223 306 307 349 351 349 273 344 340 288 42 34 16 16 358 310 280 261 230 237
118 91 113 94 66 41 52 48 62 61 58 76 60 43 54 42 22 34 35 37 28 36 21 13 27 22 22 9 6 5 344 316 51 44 39 31 16 6 12 15 2 350 250
133 126 98 88 95 28 60 53 74 69 77 73 44 50 53 43 37 33 24 28 30 30 22 19 22 18 17 27 13 9 9 1 4 61 79 59 32 21 10 17 11 6 353
132 133 112 100 89 95 70 82 73 83 68 75 69 45 45 45 44 35 32 28 29 20 24 18 16 12 9 19 27 8 5 10 1 355 78 88 62 45 32 17 19 19 4
137 133 124 109 99 95 92 95 106 99 102 76 65 50 59 46 27 38 30 25 23 22 13 20 5 6 5 352 8 9 358 360 13 1 343 98 102 77 60 34 21 20 10
151 147 142 127 120 111 122 117 94 90 94 92 87 63 53 35 44 26 35 18 12 19 10 9 4 1 4 356 351 335 332 352 353 349 349 345 47 97 87 61 34 31 29
152 162 162 144 136 144 118 136 116 118 105 95 90 77 52 38 20 30 28 26 354 13 16 3 2 1 354 354 348 334 330 312 339 310 355 345 5 341 114 84 70 48 42
152 168 171 154 148 146 148 123 107 144 124 103 88 78 45 46 22 357 36 25 358 16 19 5 358 359 347 352 343 330 339 312 299 313 327 325 358 350 338 91 130 85 62
160 173 174 170 158 166 158 171 166 153 140 120 71 60 19 44 27 3 38 25 357 20 9 3 355 350 337 356 335 338 322 306 326 311 321 314 325 352 335 333 330 98 104
161 180 184 182 171 180 183 189 172 172 135 113 83 71 57 36 35 23 18 19 3 13 10 359 356 347 348 354 338 335 328 333 224 335 296 327 332 340 315 331 312 341 74
173 193 186 188 181 194 194 204 193 158 160 98 89 80 65 54 35 47 17 19 12 355 14 2 5 347 346 342 355 318 339 322 16 336 297 305 3 325 343 327 332 329 320
190 195 193 191 182 195 205 186 199 162 157 177 153 133 77 65 54 40 29 21 7 357 5 356 3 350 342 341 360 338 332 334 326 317 320 349 346 334 339 334 332 329 312
198 192 198 191 185 192 201 193 203 200 199 166 130 92 108 66 53 42 33 19 9 350 4 352 360 344 345 341 341 347 323 314 315 310 315 318 309 340 327 338 333 328 307
199 190 199 192 191 192 195 234 194 235 208 141 128 152 96 104 52 45 31 16 5 354 359 343 346 342 338 335 334 331 324 317 313 311 312 314 315 320 324 325 328 296 321
191 191 192 197 198 197 200 206 217 213 241 169 181 198 197 195 183 66 4 3 351 352 352 342 339 336 328 327 330 321 322 321 318 316 310 313 311 311 323 313 306 322 306